TimePDT,TemperatureF,Dew PointF,Humidity,Sea Level PressureIn,VisibilityMPH,Wind Direction,Wind SpeedMPH,Gust SpeedMPH,PrecipitationIn,Events,Conditions,WindDirDegrees,DateUTC
12:56 AM,59.0,48.9,69,30.06,10.0,SE,3.5,-,N/A,,Overcast,130,2012-10-06 07:56:00
1:56 AM,59.0,48.0,67,30.06,10.0,Calm,Calm,-,N/A,,Overcast,0,2012-10-06 08:56:00
2:56 AM,57.9,48.9,72,30.05,10.0,East,3.5,-,N/A,,Overcast,90,2012-10-06 09:56:00
3:56 AM,57.9,48.9,72,30.04,10.0,South,3.5,-,N/A,,Overcast,180,2012-10-06 10:56:00
4:56 AM,57.9,48.9,72,30.03,10.0,Calm,Calm,-,N/A,,Overcast,0,2012-10-06 11:56:00
5:56 AM,57.0,50.0,77,30.04,10.0,Calm,Calm,-,N/A,,Overcast,0,2012-10-06 12:56:00
6:56 AM,57.0,48.9,74,30.04,10.0,South,3.5,-,N/A,,Overcast,180,2012-10-06 13:56:00
7:56 AM,59.0,50.0,72,30.04,10.0,Calm,Calm,-,N/A,,Overcast,0,2012-10-06 14:56:00
8:38 AM,60.8,51.8,72,30.06,10.0,Calm,Calm,-,N/A,,Scattered Clouds,0,2012-10-06 15:38:00
8:46 AM,60.8,51.8,72,30.06,10.0,Variable,4.6,-,N/A,,Mostly Cloudy,0,2012-10-06 15:46:00
8:56 AM,61.0,51.1,70,30.05,10.0,North,3.5,-,N/A,,Mostly Cloudy,350,2012-10-06 15:56:00
9:56 AM,63.0,51.1,65,30.04,10.0,NW,4.6,-,N/A,,Scattered Clouds,320,2012-10-06 16:56:00
10:56 AM,66.0,51.1,59,30.03,10.0,Calm,Calm,-,N/A,,Partly Cloudy,0,2012-10-06 17:56:00
11:56 AM,69.1,52.0,54,30.01,10.0,Variable,4.6,-,N/A,,Partly Cloudy,0,2012-10-06 18:56:00
12:56 PM,72.0,52.0,49,29.99,10.0,Variable,4.6,-,N/A,,Scattered Clouds,0,2012-10-06 19:56:00
1:56 PM,73.0,50.0,44,29.96,10.0,Variable,3.5,-,N/A,,Partly Cloudy,0,2012-10-06 20:56:00
2:56 PM,73.9,52.0,46,29.94,10.0,Variable,3.5,-,N/A,,Partly Cloudy,0,2012-10-06 21:56:00
3:56 PM,73.9,52.0,46,29.94,10.0,North,9.2,-,N/A,,Clear,350,2012-10-06 22:56:00
4:56 PM,72.0,52.0,49,29.94,10.0,NNW,8.1,-,N/A,,Mostly Cloudy,340,2012-10-06 23:56:00
5:56 PM,69.1,52.0,54,29.95,10.0,North,5.8,-,N/A,,Partly Cloudy,360,2012-10-07 00:56:00
6:56 PM,62.1,52.0,70,29.96,10.0,South,5.8,-,N/A,,Clear,190,2012-10-07 01:56:00
7:56 PM,61.0,51.1,70,29.97,10.0,SW,3.5,-,N/A,,Clear,220,2012-10-07 02:56:00
8:56 PM,59.0,51.1,75,29.98,10.0,Calm,Calm,-,N/A,,Clear,0,2012-10-07 03:56:00
9:56 PM,57.0,48.9,74,29.98,10.0,Calm,Calm,-,N/A,,Clear,0,2012-10-07 04:56:00
10:56 PM,55.9,50.0,80,29.98,10.0,Calm,Calm,-,N/A,,Clear,0,2012-10-07 05:56:00
11:56 PM,51.1,48.0,89,29.99,10.0,Calm,Calm,-,N/A,,Clear,0,2012-10-07 06:56:00